KE7JVX-3 Weather Reports


time (UTC)temp
F
wind
direction
speed
knots
gust
knots
rain 1hr
in
rain 24hr
in
rain mn
in
humidity
%
barometer
mb
20260503203927 56 229 7.0 21.7 0.00 0.00 0.00 30 1012.2
20260503202927 56 251 13.9 20.9 0.00 0.00 0.00 29 1012.2
20260503201927 56 239 6.1 14.8 0.00 0.00 0.00 29 1012.4
20260503200927 56 229 7.0 20.9 0.00 0.00 0.00 31 1012.4
20260503195926 56 235 10.4 16.5 0.00 0.00 0.00 30 1012.4
20260503194928 56 243 8.7 18.2 0.00 0.00 0.00 29 1012.6
20260503193929 56 222 6.1 16.5 0.00 0.00 0.00 30 1012.7
20260503192927 56 227 7.0 13.9 0.00 0.00 0.00 31 1012.7
20260503191927 56 243 6.1 15.6 0.00 0.00 0.00 31 1012.9
20260503190927 57 216 5.2 12.2 0.00 0.00 0.00 33 1012.9
20260503185928 56 203 5.2 11.3 0.00 0.00 0.00 33 1013.0
20260503184928 54 200 4.3 12.2 0.00 0.00 0.00 36 1013.1
20260503183927 54 202 4.3 15.6 0.00 0.00 0.00 37 1013.1
20260503182927 53 199 6.1 11.3 0.00 0.00 0.00 38 1013.1
20260503181928 53 227 7.8 13.9 0.00 0.00 0.00 36 1013.2
20260503180927 54 206 5.2 13.9 0.00 0.00 0.00 36 1013.2
20260503175927 53 186 6.1 13.0 0.00 0.00 0.00 38 1013.4
20260503174926 52 200 5.2 12.2 0.00 0.00 0.00 41 1013.5
20260503173927 52 181 7.8 13.0 0.00 0.00 0.00 39 1013.4
20260503172926 51 188 5.2 12.2 0.00 0.00 0.00 41 1013.5
20260503171927 51 193 4.3 12.2 0.00 0.00 0.00 42 1013.5
20260503170927 50 201 4.3 11.3 0.00 0.00 0.00 43 1013.4
20260503150926 48 162 6.1 11.3 0.00 0.00 0.00 42 1013.4
20260503130927 46 126 3.5 9.6 0.00 0.00 0.00 45 1012.8
20260503072928 46 121 5.2 11.3 0.00 0.00 0.00 41 1013.6
20260503071928 46 133 4.3 11.3 0.00 0.00 0.00 39 1013.5
20260503070928 46 130 5.2 11.3 0.00 0.00 0.00 39 1013.5
20260503054930 47 135 3.5 7.8 0.00 0.00 0.00 32 1013.4
20260503053928 47 127 4.3 8.7 0.00 0.00 0.00 32 1013.5
20260503052928 47 146 3.5 8.7 0.00 0.00 0.00 31 1013.5
20260503051928 48 138 3.5 8.7 0.00 0.00 0.00 31 1013.5
20260503050928 48 139 4.3 10.4 0.00 0.00 0.00 31 1013.4
20260503045928 48 120 6.1 10.4 0.00 0.00 0.00 31 1013.3
20260503044928 48 119 5.2 10.4 0.00 0.00 0.00 31 1013.4
20260503043930 48 120 4.3 7.8 0.00 0.00 0.00 31 1013.3
20260503042928 48 119 4.3 8.7 0.00 0.00 0.00 30 1013.2
20260503041928 48 137 2.6 7.8 0.00 0.00 0.00 30 1013.1
20260503040928 48 151 4.3 8.7 0.00 0.00 0.00 30 1013.2
20260503035928 48 122 3.5 8.7 0.00 0.00 0.00 29 1013.0
20260503035346 48 135 4.3 8.7 0.00 0.00 0.00 29 1012.9
20260503034933 48 135 4.3 8.7 0.00 0.00 0.00 29 1012.9
20260503033929 48 140 3.5 9.6 0.00 0.00 0.00 29 1012.9
20260503033215 48 131 3.5 9.6 0.00 0.00 0.00 29 1012.9
20260503032929 48 131 3.5 9.6 0.00 0.00 0.00 29 1012.9
20260503032114 49 121 3.5 9.6 0.00 0.00 0.00 28 1012.8
20260503031928 49 121 3.5 9.6 0.00 0.00 0.00 28 1012.8
20260503030928 49 124 5.2 10.4 0.00 0.00 0.00 28 1012.7
20260503025427 49 123 5.2 14.8 0.00 0.00 0.00 26 1012.7
20260503024427 49 112 7.8 13.0 0.00 0.00 0.00 26 1012.6
20260503023427 49 117 7.0 10.4 0.00 0.00 0.00 26 1012.5
20260503022427 49 122 4.3 9.6 0.00 0.00 0.00 27 1012.5
20260503021430 49 130 2.6 7.8 0.00 0.00 0.00 27 1012.5
20260503020427 49 146 3.5 7.8 0.00 0.00 0.00 26 1012.5
20260503015427 50 144 1.7 7.8 0.00 0.00 0.00 26 1012.5
20260503014427 50 125 1.7 6.1 0.00 0.00 0.00 25 1012.5
20260503013427 51 151 1.7 6.1 0.00 0.00 0.00 24 1012.5
20260503012427 51 154 1.7 5.2 0.00 0.00 0.00 24 1012.5
20260503011428 52 119 4.3 7.8 0.00 0.00 0.00 23 1012.6
20260503010427 53 141 2.6 9.6 0.00 0.00 0.00 20 1012.6
20260503005427 54 177 2.6 7.8 0.00 0.00 0.00 15 1012.6
20260503004427 54 181 2.6 6.1 0.00 0.00 0.00 15 1012.6
20260503003427 55 178 0.9 7.0 0.00 0.00 0.00 17 1012.6
20260503002427 55 0 0.0 5.2 0.00 0.00 0.00 16 1012.6
20260503001427 55 225 0.9 5.2 0.00 0.00 0.00 16 1012.6
20260503000427 56 163 0.9 8.7 0.00 0.00 0.00 15 1012.7
20260502235428 55 0 0.0 3.5 0.00 0.00 0.00 16 1012.6
20260502234427 54 0 0.0 8.7 0.00 0.00 0.00 16 1012.6
20260502233432 54 166 3.5 9.6 0.00 0.00 0.00 17 1012.6
20260502232427 55 192 2.6 7.8 0.00 0.00 0.00 12 1012.6
20260502231427 56 165 4.3 7.8 0.00 0.00 0.00 12 1012.6
20260502230715 56 152 1.7 7.8 0.00 0.00 0.00 13 1012.6
20260502230427 56 152 1.7 7.8 0.00 0.00 0.00 13 1012.6
20260502225428 56 123 2.6 7.8 0.00 0.00 0.00 13 1012.6
20260502224427 56 164 3.5 9.6 0.00 0.00 0.00 18 1012.7
20260502223429 56 264 2.6 8.7 0.00 0.00 0.00 17 1012.7
20260502222427 56 234 2.6 8.7 0.00 0.00 0.00 18 1012.8
20260502221427 56 176 2.6 8.7 0.00 0.00 0.00 19 1012.9
20260502220427 56 193 5.2 12.2 0.00 0.00 0.00 18 1012.9
20260502215427 57 159 1.7 5.2 0.00 0.00 0.00 18 1012.9
20260502214427 56 248 3.5 8.7 0.00 0.00 0.00 18 1013.0
20260502213427 57 213 3.5 9.6 0.00 0.00 0.00 21 1013.2
20260502212427 56 137 2.6 7.8 0.00 0.00 0.00 22 1013.2
20260502211428 57 154 4.3 7.8 0.00 0.00 0.00 21 1013.3
20260502210427 56 174 3.5 9.6 0.00 0.00 0.00 21 1013.5
20260502205427 57 226 3.5 10.4 0.00 0.00 0.00 22 1013.5
20260502204427 56 165 1.7 11.3 0.00 0.00 0.00 24 1013.6